2017-008DH

Last updated on Fri Mar 10 2017 00:15:03 GMT+0000 (Coordinated Universal Time)

1 42051U 17008DH 17068.89237667 .00001578 00000-0 72920-4 0 9993 2 42051 97.5116 130.4905 0008420 172.4388 187.6920 15.21659120 917

Satellite not in orbit

2017-008DH